Вернуться в каталог

ONEWEB-0667

АктивенСвязьPO
NORAD 55827·PAYLOAD·🇬🇧 United Kingdom

Запущен Mar 9, 2023 с Cape Canaveral Space Force Station

Loading…

Ближайшие Пролёты (ближайшие 24 часа)

TLE

СвежийSource: CelesTrak SupGP

Эпоха: Sep 14, 2026, 16:06 UTC

1 55827C 23029AH  26257.67102269 -.00002929  00000+0 -72112-2 0  2573
2 55827  87.9142 256.5840 0002159  87.0505  22.7333 13.20779834    17

Отслеживайте ONEWEB-0667 в реальном времени с AllMySat

Download on the App Store